Regional Weather Roundup
Issued by NWS

Home | Current Version | Previous Version | Graphics & Text | Print | Product List | Glossary On
Versions: 1 2 3 4 5 6 7 8 9 10 11 12 13 14 15 16 17 18 19 20 21 22 23 24 25 26 27 28
000
ASUS45 KCYS 242010
RWRWY

WYOMING REGIONAL WEATHER ROUNDUP
NATIONAL WEATHER SERVICE CHEYENNE WY
200 PM MDT FRI OCT 24 2014

NOTE:  "FAIR" INDICATES FEW OR NO CLOUDS BELOW 12,000 FEET
WITH NO SIGNIFICANT WEATHER AND/OR OBSTRUCTIONS TO VISIBILITY.

WYZ001-242100-
YELLOWSTONE NATIONAL PARK

CITY           SKY/WX    TMP DP  RH WIND       PRES   REMARKS
LK YELLOWSTONE   N/A     51  28  41 MISG      30.23
W YELLOWSTONE  NOT AVBL

$$
WYZ002>013-054>058-071-098>099-242100-
NORTHERN WYOMING

CITY           SKY/WX    TMP DP  RH WIND       PRES   REMARKS
JACKSON        CLOUDY    66  25  20 S18G30    30.17F
CODY           CLOUDY    68  30  24 E5        30.03F
GREYBULL       CLOUDY    73  29  19 SE5       29.98F
WORLAND        SUNNY     75  30  19 N6        29.99F
SHERIDAN       MOSUNNY   68  34  28 MISG      30.03F
BUFFALO        MOSUNNY   66  27  23 VRB5      30.08S
GILLETTE       SUNNY     66  33  29 VRB5      30.04F
HULETT         FAIR      64  34  32 N9        30.05
NEWCASTLE      FAIR      70  27  19 SE3       30.03F

$$
WYZ014>020-022>026-101>103-242100-
CENTRAL WYOMING

CITY           SKY/WX    TMP DP  RH WIND       PRES   REMARKS
BIG PINEY      LGT RAIN  68  17  14 W16G26    30.24F
PINEDALE       CLEAR     63  27  25 W6        30.24
DUBOIS         FAIR      63  21  20 NW29G41   30.15F
LANDER         SUNNY     71  27  19 VRB5      30.07F
RIVERTON       SUNNY     69  25  19 E6        30.08F
CASPER         SUNNY     75  22  13 W25G32    30.08F
DOUGLAS        SUNNY     78  21  12 W21G26    30.06F

$$
WYZ021-027>030-104>119-242100-
SOUTHERN WYOMING

CITY           SKY/WX    TMP DP  RH WIND       PRES   REMARKS
EVANSTON       SUNNY     69  26  20 SW14G24   30.27F
KEMMERER       CLEAR     64  23  20 W20       30.27F
FORT BRIDGER   FAIR      71  23  16 W17G28    30.29F
ROCK SPRINGS   SUNNY     67  21  17 W17       30.24F
DIXON          FAIR      70  28  20 SW16G23   30.29F
RAWLINS        SUNNY     68  27  21 SW24G32   30.24F
SARATOGA       FAIR      68  27  21 SW21G29   30.26F
LARAMIE        SUNNY     70  20  15 W22G35    30.24F
CHEYENNE       MOSUNNY   76  23  14 W15G24    30.18F
TORRINGTON     SUNNY     81  28  14 W20G30    30.03F
PINE BLUFFS    FAIR      79  23  12 NW16G24   30.12F

$$



USA.gov is the U.S. government's official web portal to all federal, state and local government web resources and services.